Погода в Мамакане

Погода в Мамакане : погода сейчас, прогноз погоды и архив. Всё, что Вы хотите узнать о погоде в Мамакане!

Поиск расширенной информации на нашем сайте:

Другие новости

Новости СМИ2

Главная страница сайта

Новости сайта

03.07.2017

Напоминаем, что на нашем специализированном сайте Метеоцентр.Азия вы можете получить высокодетализированные автоматические прогнозы погоды по пунктам России, СНГ и мира в авиационном формате (включающие направление и скорость ветра, видимость, явления погоды, количество и форму облачности, нижнюю и верхнюю границу облачности).


Погода в Мамакане - сегодня

Время (UTC), дата Ветер
(°,м/с) 
Видим.   Явления Облачность Т
(°С)
Тd
(°С)
f(%) Тe
(°С)
Pmin
(гПа)
dP
(гПа)
Po
(мм)
O2
(г/м3)
Тmin Tmax R s Состояние
почвы
06 19.10.18 080 (В) 20000 м  {ливн. осадки}  10/10 1000 м кучево-дожд. 
[Cb cap]
+2.4 -0.9 79 +2  1021.4  0.4  743  297           
09 19.10.18 тихо ()   20000 м    10/9 1000 м кучево-дожд., верхняя 
[Cb cap|Ci fib]
+2.2 +0 85 +2  1022.1  0.7  744  297           
12 19.10.18 тихо ()   н/о  {ливн. осадки}  10/9 1000 м кучево-дожд., верхняя 
[Cb cap|Ci fib]
+0.2 -0.6 94 1023  0.7  744  300    +3  0.1     
15 19.10.18 тихо ()   н/о    10/10 1000 м кучево-дожд. 
[Cb cap]
-0.8 -1.4 96 -1  1023.1  744  301           
18 19.10.18 тихо ()   н/о    10/10 600 м 
[Sc diur, vesp]
-1.2 -2.1 94 -1  1023.3  0.1  744  301           
21 19.10.18 310 (СЗ) н/о  туман  ?/?  
-3.1 -4.1 93 -3  1023.3  -0.3  744  304           
00 20.10.18 300 (СЗ) 0500 м  туман  ?/?  
-3 -4 93 -3  1022.7  -0.6  743  303  -3.1        замёрзшая 
03 20.10.18 250 (З) 10 км  дымка{снег, туман}  10/10 600 м кучево-дожд. 
[Cb cap]
-1.5 -2.3 94 -1  1020.9  -1.4  742  301           
06 20.10.18 160 (Ю) 20000 м  {снег}  9/0 верхняя 
[Cs]
+1.9 -2.1 75 +3  1018.3  -2.3  741  297           
09 20.10.18 тихо ()   20000 м    3/0 верхняя 
[Ci fib]
+0.1 -2.9 80 1016.6  -1.7  739  298           
12 20.10.18 тихо ()   н/о    ясно 
-3.3 -4.1 94 -3  1017.4  0.3  740  302    +3.5  0.0     
15 20.10.18 тихо ()   н/о    ясно 
-4.9 -5.9 93 -5  1017.7  0.1  740  304           
18 20.10.18 тихо ()   н/о    3/1 600 м верхняя 
[St|Ci fib]
-6.2 -7 94 -6  1017.9  0.1  740  306           
21 20.10.18 тихо ()   н/о    9/4 600 м верхняя 
[Sc|Ci]
-4.6 -5.5 93 -5  1018.1  0.4  740  304           
00 21.10.18 280 (З) 20000 м    10/9 600 м верхняя 
[Sc|Ci fib]
-3.8 -5 91 -3  1019.1  741  303  -6.5        замёрзшая 
03 21.10.18 270 (З) 20000 м    9/8 600 м средняя, верхняя 
[Sc|Ac lent|Ci fib]
-1.1 -2.1 93 -1  1019.1  0.3  741  300           
06 21.10.18 330 (СЗ) 20000 м    10/10 1000 м кучево-дожд. 
[Cb cap]
+0.8 -3.2 75 +1  1018.4  -0.3  741  298           
09 21.10.18 280 (З) 20000 м    9/8 1000 м кучево-дожд., средняя, верхняя 
[Cb cap|Ac lent|Ci fib]
+1.7 -3.6 68 +2  1019  0.5  741  297           
12 21.10.18 340 (С) н/о    9/9 1000 м кучево-дожд., средняя, верхняя 
[Cb cap|Ac lent|Ci fib]
+0.8 -2.2 80 +1  1020.5  1.4  742  298    +2.5       
15 21.10.18 330 (СЗ) н/о    10/10 1000 м кучево-дожд. 
[Cb cap]
-0.1 -5.1 69 +1  1020.6  742  300           
18 21.10.18 250 (З) н/о    10/8 1000 м кучево-дожд., средняя, верхняя 
[Cb cap|Ac lent|Cs]
-0.8 -5.3 71 1020.4  -0.2  742  300           
21 21.10.18 270 (З) н/о    10/10 1000 м кучево-дожд. 
[Cb cap]
-0.8 -5.3 71 1020.2  -0.2  742  300           
00 22.10.18 260 (З) 20000 м    10/10 1000 м кучево-дожд. 
[Cb cap]
-1 -4.6 77 1020  -0.3  742  300  -1.1        замёрзшая 
03 22.10.18 280 (З) 20000 м    10/10 1000 м кучево-дожд. 
[Cb cap]
+0.2 -5.4 66 +1  1019.3  -0.5  741  299           
06 22.10.18 260 (З) 20000 м    9/5 1000 м кучево-дожд., верхняя 
[Cb cap|Cs]
+1.7 -6.4 55 +2  1017.5  -1.6  740  297           
Время (UTC), дата Ветер
(°,м/с) 
Видим.   Явления Облачность Т
(°С)
Тd
(°С)
f(%) Тe
(°С)
Pmin
(гПа)
dP
(гПа)
Po
(мм)
O2
(г/м3)
Тmin Tmax R s Состояние
почвы

Для получения пояснительной информации подведите курсор к названию столбца.

ПОГОДА в Мамакане - архив

Всё, что Вы хотите узнать о погоде в Мамакане - удобно и подробно!

Выберите нужную дату (начиная с 1 января 2015* года) и нажмите кнопку "Найти".
Будут отображены архивные сводки погоды по пункту Мамакан, начиная с указанной даты.


Отображать данные в формате CSV (для использования в таблицах Excel)


Внимание! Наш архив погоды предназначен исключительно для личного некоммерческого использования в познавательных целях. Если Вам необходимы официальные справки о состоянии погоды (для производственных, юридических, коммерческих и т.п. целей), обращайтесь в органы Росгидромета.

*Примечание: данная дата относится к архиву по метеостанциям СССР (Россия, СНГ, Балтия).
Архив по метеостанциям Зарубежной Европы и Азии (кроме Китая) хранится 10 дней, по другим регионам земного шара (Китай, Африка, Америка, Австралия, Океания) - 1 день.

Мамакан - район местоположения метеостанции


Название, широта, долгота, высота метеостанции:
Мамакан 57.82°ш. 114°д. 249 м над ур. моря [Российская Федерация]

Дополнительная информация

В oтличие oт бoльшинства пoгoдных сайтoв мы публикуем пoдрoбную метеoинфoрмацию в детальнoм прoфессиoнальнoм фoрмате.

Характеристики температуры и влажнoсти вoздуха измеряются на высoте 2 м в тени вдали oт зданий и деревьев.
Скoрoсть ветра измеряется на высoте 10 м (на урoвне рoста челoвека скoрoсть ветра ниже в 1.5-2 раза). Если метеoстанция нахoдится в гoрoде или в лесу, тo скoрoсть ветра занижена на 2-4 м/с пo сравнению с oткрытым местoм. Скoрoсть ветра над акватoриями крупных рек и oзёр, а также на вершинах хoлмoв на 2-5 м/с выше, чем в oбычных услoвиях.
Атмoсфернoе давление в разных тoчках местнoсти мoжет значительнo oтличаться oт давления на метеoстанции, в зависимoсти oт услoвий рельефа (при пoдъёме на 10 м давление пoнижается примернo на 1 мм рт.ст.).